Regional Weather Roundup
Issued by NWS

Home | Current Version | Previous Version | Graphics & Text | Print | Product List | Glossary On
Versions: 1 2 3 4 5 6 7 8 9 10 11 12 13 14 15 16 17 18 19 20 21 22 23 24 25 26 27 28 29 30 31 32 33 34 35 36 37 38 39 40 41 42 43 44 45 46 47 48 49 50
000
ASUS43 KLOT 130503
RWRIL

ILLINOIS REGIONAL WEATHER ROUNDUP
NATIONAL WEATHER SERVICE CHICAGO/ROMEOVILLE IL
1100 PM CST TUE DEC 12 2017

NOTE: "FAIR" INDICATES FEW OR NO CLOUDS BELOW 12,000 FEET WITH NO
SIGNIFICANT WEATHER AND/OR OBSTRUCTIONS TO VISIBILITY.

* THESE STATIONS ARE NOT UNDER NWS QUALITY CONTROL. THEY ALSO MAY NOT
  REPORT WEATHER SUCH AS PRECIPITATION OR FOG.

ILZ001-002-007-009-015-016-024-130600-
NORTHWEST ILLINOIS

CITY           SKY/WX    TMP DP  RH WIND       PRES   REMARKS
MOLINE         CLOUDY    27   5  39 SW6       29.91F WCI  20
STERLING*      CLOUDY    24  14  65 VRB3      29.94F
SAVANNA*       CLOUDY    24  15  68 S7        29.91F WCI  16
$$

ILZ003-004-008-010-011-017-018-130600-
NORTH CENTRAL ILLINOIS

CITY           SKY/WX    TMP DP  RH WIND       PRES   REMARKS
ROCKFORD       FLURRIES  21  12  68 S6        29.92F WCI  13
FREEPORT*      CLOUDY    21  14  72 S5        29.91F WCI  15
ROCHELLE*      CLOUDY    21  16  81 S5        29.93F WCI  14
DE KALB*       CLOUDY    21  12  67 SW6       29.92F WCI  14
PERU*          CLOUDY    23   9  56 S6        29.96F WCI  15
$$

ILZ005-006-012>014-019>023-130600-
NORTHEAST ILLINOIS

CITY           SKY/WX    TMP DP  RH WIND       PRES   REMARKS
CHICAGO-OHARE  CLOUDY    21   9  59 SW6       29.94F WCI  13
CHICAGO-MIDWAY CLOUDY    22   7  52 W8        29.96F WCI  12
AURORA         CLOUDY    20  12  71 SW3       29.96F
LANSING*       CLOUDY    21  10  62 W5        29.96F WCI  15
JOLIET*        CLOUDY    22  11  61 CALM      29.98F
WAUKEGAN       CLOUDY    18   5  57 CALM      29.91F
DUPAGE AIRPORT CLOUDY    20  11  68 S6        29.93F WCI  12
KANKAKEE*      CLOUDY    21  10  61 S3        29.98F
WHEELING       CLOUDY    21   9  59 SW6       29.94F WCI  13
MORRIS*        CLOUDY    21  12  68 CALM      29.96F
ROMEOVILLE*    CLOUDY    19  12  72 SW3       29.97F
NORTHERLY ISL    N/A     22   9  57 W6          N/A  WCI  15
$$

LMZ740>746-130600-
SOUTHERN LAKE MICHIGAN

STATION/POSITION SKY/WX   TEMP    WIND        PRES    VSBY  WAVE
                          AIR SEA DIR/SP/G                  HT/PER
                          (F)     (DEG/KT/KT) (MB)    (MI)  (FT/S)
HARRISON CRIB              22     270/ 10/ 11   N/A
BURNHAM HARBOR             22     270/  4/ 10   N/A
CALUMET HARBOR             20     230/  4/  7 1013.9F
BURNS HARBOR               22     240/ 10/ 14 1015.2S
MICHIGAN CITY              23     270/ 11/ 12   N/A
$$

ILZ025>027-034>036-040-047-049-050-058-095>099-130600-
WEST-CENTRAL ILLINOIS

CITY           SKY/WX    TMP DP  RH WIND       PRES   REMARKS
QUINCY         CLOUDY    23   8  52 S7        29.98F WCI  15
GALESBURG*     CLOUDY    24  12  61 S7        29.95F WCI  16
MACOMB*        CLOUDY    22   8  53 SW7       30.00F WCI  14
JACKSONVILLE*  CLOUDY    25   3  39 SW7       30.01F WCI  17
PITTSFIELD*    CLOUDY    25   8  48 SW6       30.01F WCI  18
$$

ILZ028>032-037-038-041>044-048-051>054-059>061-130600-
CENTRAL ILLINOIS

CITY           SKY/WX    TMP DP  RH WIND       PRES   REMARKS
PONTIAC        CLOUDY    25   8  49 SW5       29.98F WCI  19
BLOOMINGTON    CLOUDY    24   8  50 SW7       29.97F WCI  16
DECATUR        CLOUDY    22   8  55 SW7       30.01F WCI  13
PEORIA         CLOUDY    21   8  57 S5        29.98F WCI  15
LACON*         CLOUDY    23   7  49 CALM      29.96F
LINCOLN*       CLOUDY    21   9  59 CALM      30.00F
SPRINGFIELD    CLOUDY    23   5  46 SW6       30.01F WCI  16
TAYLORVILLE    CLOUDY    20   7  59 S5        30.02F WCI  13
$$

ILZ033-039-045-046-055>057-062-063-130600-
EAST-CENTRAL ILLINOIS

CITY           SKY/WX    TMP DP  RH WIND       PRES   REMARKS
CHAMPAIGN      CLOUDY    23   8  52 SW6       30.00F WCI  16
DANVILLE*      CLOUDY    21   8  57 CALM      29.99S
RANTOUL*       CLOUDY    26  10  50 SW3       29.99F
MATTOON        CLOUDY    22  10  60 S5        30.02F WCI  16
PARIS*         CLOUDY    22  10  59 SW6       30.03F WCI  14
$$

ILZ079-100>102-130600-
SOUTHWEST ILLINOIS

CITY           SKY/WX    TMP DP  RH WIND       PRES   REMARKS
ALTON          CLOUDY    23   9  56 CALM      30.05F
BELLEVILLE     CLOUDY    23   7  50 CALM      30.05F
CAHOKIA*       CLOUDY    22   9  57 CALM      30.06F
SPARTA*        CLOUDY    28   9  45 CALM      30.08F
$$

ILZ064>066-069>071-074>076-080>082-084>086-088>090-092>094-130600-
SOUTH-CENTRAL ILLINOIS

CITY           SKY/WX    TMP DP  RH WIND       PRES   REMARKS
CARBONDALE     CLOUDY    21  12  68 S5        30.09F WCI  15
CAIRO*         CLOUDY    23  15  71 CALM      30.12F
EFFINGHAM*     CLEAR     21  14  75 CALM      30.06F
MARION         CLOUDY    22  12  65 S5        30.10F WCI  16
MT. VERNON     CLOUDY    19  15  84 CALM      30.08F
CENTRALIA*     CLEAR     26  12  55 CALM      30.06F
SALEM*         CLOUDY    26  11  53 SW5       30.06F WCI  20
METROPOLIS*    CLOUDY    24  15  70 CALM      30.12F
$$

ILZ067-068-072-073-078-083-087-091-130600-
SOUTHEAST ILLINOIS

CITY           SKY/WX    TMP DP  RH WIND       PRES   REMARKS
LAWRENCEVILLE  CLEAR     21  13  71 CALM      30.07F
FLORA*         CLEAR     23  17  77 SW6       30.08S WCI  16
FAIRFIELD*     CLOUDY    21  13  72 CALM      30.08S
HARRISBURG*    CLOUDY    21  17  84 CALM      30.10F
ROBINSON*      CLEAR     18  11  75 S5        30.08S WCI  11
CARMI*         CLOUDY    22  12  65 SW5       30.09F WCI  16
$$

ABBREVIATIONS USED IN REMARKS
   TC - TEMPERATURE IN CELSIUS
  WCI - WIND CHILL INDEX
   HX - HEAT INDEX
  VSB - VISIBILITY
$$





USA.gov is the U.S. government's official web portal to all federal, state and local government web resources and services.